Time,TemperatureF,DewpointF,PressureIn,WindDirection,WindDirectionDegrees,WindSpeedMPH,WindSpeedGustMPH,Humidity,HourlyPrecipIn,Conditions,Clouds,dailyrainin,SoftwareType,DateUTC
2013-08-20 00:12:00,69.0,63.0,30.09,SE,131,0.0,3.0,82,0.00,,,0.00,,2013-08-20 05:12:00,
2013-08-20 00:22:00,69.0,63.0,30.09,SE,131,0.0,3.0,82,0.00,,,0.00,,2013-08-20 05:22:00,
2013-08-20 00:52:00,69.0,63.0,30.09,SE,131,0.0,0.0,82,0.00,,,0.00,,2013-08-20 05:52:00,
2013-08-20 01:11:00,68.0,63.0,30.09,SE,131,0.0,0.0,83,0.00,,,0.00,,2013-08-20 06:11:00,
2013-08-20 01:21:00,68.0,63.0,30.09,SE,131,0.0,0.0,83,0.00,,,0.00,,2013-08-20 06:21:00,
2013-08-20 01:52:00,67.0,63.0,30.09,SE,131,0.0,0.0,86,0.00,,,0.00,,2013-08-20 06:52:00,
2013-08-20 02:11:00,66.0,62.0,30.09,SE,131,0.0,0.0,86,0.00,,,0.00,,2013-08-20 07:11:00,
2013-08-20 02:22:00,66.0,62.0,30.09,SE,131,0.0,0.0,86,0.00,,,0.00,,2013-08-20 07:22:00,
2013-08-20 02:52:00,65.0,61.0,30.09,SE,131,0.0,0.0,87,0.00,,,0.00,,2013-08-20 07:52:00,
2013-08-20 03:11:00,64.0,60.0,30.09,SE,131,0.0,0.0,87,0.00,,,0.00,,2013-08-20 08:11:00,
2013-08-20 03:21:00,64.0,60.0,30.09,SE,131,0.0,0.0,87,0.00,,,0.00,,2013-08-20 08:21:00,
2013-08-20 03:52:00,64.0,61.0,30.09,SE,131,0.0,0.0,89,0.00,,,0.00,,2013-08-20 08:52:00,
2013-08-20 04:11:00,64.0,61.0,30.08,SE,131,0.0,2.0,90,0.00,,,0.00,,2013-08-20 09:11:00,
2013-08-20 04:21:00,64.0,61.0,30.08,SE,131,0.0,2.0,90,0.00,,,0.00,,2013-08-20 09:21:00,
2013-08-20 04:53:00,65.0,62.0,30.08,SE,131,0.0,1.0,89,0.00,,,0.00,,2013-08-20 09:53:00,
2013-08-20 05:12:00,64.0,61.0,30.08,SE,131,0.0,0.0,89,0.00,,,0.00,,2013-08-20 10:12:00,
2013-08-20 05:22:00,64.0,61.0,30.08,SE,131,0.0,0.0,89,0.00,,,0.00,,2013-08-20 10:22:00,
2013-08-20 05:52:00,64.0,61.0,30.09,SE,131,0.0,1.0,90,0.00,,,0.00,,2013-08-20 10:52:00,
2013-08-20 06:11:00,63.0,60.0,30.09,SE,131,0.0,0.0,90,0.00,,,0.00,,2013-08-20 11:11:00,
2013-08-20 06:22:00,63.0,60.0,30.09,SE,131,0.0,0.0,90,0.00,,,0.00,,2013-08-20 11:22:00,
2013-08-20 06:52:00,63.0,60.0,30.10,SE,131,0.0,1.0,91,0.00,,,0.00,,2013-08-20 11:52:00,
2013-08-20 07:12:00,63.0,60.0,30.12,SE,131,0.0,0.0,90,0.00,,,0.00,,2013-08-20 12:12:00,
2013-08-20 07:21:00,63.0,60.0,30.12,SE,131,0.0,0.0,90,0.00,,,0.00,,2013-08-20 12:21:00,
2013-08-20 07:52:00,63.0,61.0,30.12,SE,131,0.0,1.0,92,0.00,,,0.00,,2013-08-20 12:52:00,
2013-08-20 08:11:00,67.0,63.0,30.13,SE,131,0.0,2.0,88,0.00,,,0.00,,2013-08-20 13:11:00,
2013-08-20 08:22:00,67.0,63.0,30.13,SE,131,0.0,2.0,88,0.00,,,0.00,,2013-08-20 13:22:00,
2013-08-20 08:52:00,71.0,64.0,30.14,SE,131,1.0,2.0,78,0.00,,,0.00,,2013-08-20 13:52:00,
2013-08-20 09:11:00,74.0,66.0,30.14,SE,131,0.0,2.0,75,0.00,,,0.00,,2013-08-20 14:11:00,
2013-08-20 09:21:00,74.0,66.0,30.14,SE,131,0.0,2.0,75,0.00,,,0.00,,2013-08-20 14:21:00,
2013-08-20 09:52:00,75.0,66.0,30.14,SE,131,0.0,2.0,74,0.00,,,0.00,,2013-08-20 14:52:00,
2013-08-20 10:11:00,76.0,67.0,30.14,SE,131,0.0,3.0,73,0.00,,,0.00,,2013-08-20 15:11:00,
2013-08-20 10:22:00,76.0,67.0,30.14,SE,131,0.0,3.0,73,0.00,,,0.00,,2013-08-20 15:22:00,
2013-08-20 10:53:00,79.0,67.0,30.14,SE,131,0.0,3.0,67,0.00,,,0.00,,2013-08-20 15:53:00,
2013-08-20 11:15:00,81.0,69.0,30.14,SE,131,2.0,4.0,66,0.00,,,0.00,,2013-08-20 16:15:00,
2013-08-20 11:30:00,-999.0,-99.9,30.14,SE,131,2.0,4.0,66,0.00,,,0.00,,2013-08-20 16:30:00,
2013-08-20 11:42:00,81.0,68.0,30.14,SE,131,0.0,3.0,65,0.00,,,0.00,,2013-08-20 16:42:00,
2013-08-20 11:53:00,81.0,68.0,30.14,SE,131,0.0,3.0,65,0.00,,,0.00,,2013-08-20 16:53:00,
2013-08-20 12:12:00,83.0,69.0,30.14,ESE,112,0.0,5.0,62,0.00,,,0.00,,2013-08-20 17:12:00,
2013-08-20 12:24:00,83.0,69.0,30.14,ESE,112,0.0,5.0,62,0.00,,,0.00,,2013-08-20 17:24:00,
2013-08-20 12:52:00,83.0,68.0,30.13,SSE,154,0.0,7.0,60,0.00,,,0.00,,2013-08-20 17:52:00,
2013-08-20 13:12:00,84.0,67.0,30.12,South,188,1.0,7.0,57,0.00,,,0.00,,2013-08-20 18:12:00,
2013-08-20 13:22:00,84.0,67.0,30.12,South,188,1.0,7.0,57,0.00,,,0.00,,2013-08-20 18:22:00,
2013-08-20 13:52:00,84.0,69.0,30.11,ESE,107,2.0,5.0,60,0.00,,,0.00,,2013-08-20 18:52:00,
2013-08-20 14:11:00,84.0,68.0,30.11,East,87,2.0,8.0,58,0.00,,,0.00,,2013-08-20 19:11:00,
2013-08-20 14:22:00,84.0,68.0,30.11,East,87,2.0,8.0,58,0.00,,,0.00,,2013-08-20 19:22:00,
2013-08-20 14:53:00,85.0,68.0,30.10,SSE,149,3.0,6.0,56,0.00,,,0.00,,2013-08-20 19:53:00,
2013-08-20 15:12:00,84.0,67.0,30.09,SW,214,1.0,6.0,57,0.00,,,0.00,,2013-08-20 20:12:00,
2013-08-20 15:22:00,84.0,67.0,30.09,SW,214,1.0,6.0,57,0.00,,,0.00,,2013-08-20 20:22:00,
2013-08-20 15:52:00,84.0,66.0,30.08,SSE,160,3.0,8.0,54,0.00,,,0.00,,2013-08-20 20:52:00,
2013-08-20 16:11:00,85.0,66.0,30.07,South,173,1.0,6.0,53,0.00,,,0.00,,2013-08-20 21:11:00,
2013-08-20 16:22:00,85.0,66.0,30.07,South,173,1.0,6.0,53,0.00,,,0.00,,2013-08-20 21:22:00,
2013-08-20 16:55:00,85.0,66.0,30.07,SW,220,2.0,6.0,53,0.00,,,0.00,,2013-08-20 21:55:00,
2013-08-20 17:14:00,84.0,65.0,30.06,SSW,206,2.0,5.0,53,0.00,,,0.00,,2013-08-20 22:14:00,
2013-08-20 17:24:00,84.0,65.0,30.06,SSW,206,2.0,5.0,53,0.00,,,0.00,,2013-08-20 22:24:00,
2013-08-20 17:53:00,85.0,66.0,30.06,SE,134,2.0,5.0,54,0.00,,,0.00,,2013-08-20 22:53:00,
2013-08-20 18:12:00,85.0,66.0,30.06,SSE,153,1.0,4.0,54,0.00,,,0.00,,2013-08-20 23:12:00,
2013-08-20 18:22:00,85.0,66.0,30.06,SSE,153,1.0,4.0,54,0.00,,,0.00,,2013-08-20 23:22:00,
2013-08-20 18:43:00,84.0,66.0,30.06,SSE,154,1.0,4.0,55,0.00,,,0.00,,2013-08-20 23:43:00,
2013-08-20 18:53:00,84.0,66.0,30.06,SSE,154,1.0,4.0,55,0.00,,,0.00,,2013-08-20 23:53:00,
2013-08-20 19:22:00,84.0,67.0,30.05,SSE,155,0.0,1.0,56,0.00,,,0.00,,2013-08-21 00:22:00,
2013-08-20 19:52:00,82.0,67.0,30.06,SSE,154,0.0,1.0,61,0.00,,,0.00,,2013-08-21 00:52:00,
2013-08-20 20:11:00,80.0,68.0,30.06,SSE,154,0.0,1.0,66,0.00,,,0.00,,2013-08-21 01:11:00,
2013-08-20 20:22:00,80.0,68.0,30.06,SSE,154,0.0,1.0,66,0.00,,,0.00,,2013-08-21 01:22:00,
2013-08-20 20:52:00,79.0,68.0,30.07,SSE,154,0.0,1.0,70,0.00,,,0.00,,2013-08-21 01:52:00,
2013-08-20 21:12:00,77.0,68.0,30.07,SSE,154,0.0,1.0,73,0.00,,,0.00,,2013-08-21 02:12:00,
2013-08-20 21:22:00,77.0,68.0,30.07,SSE,154,0.0,1.0,73,0.00,,,0.00,,2013-08-21 02:22:00,
2013-08-20 21:52:00,75.0,67.0,30.08,SSE,154,0.0,1.0,76,0.00,,,0.00,,2013-08-21 02:52:00,
2013-08-20 22:12:00,74.0,67.0,30.08,SSE,154,0.0,0.0,79,0.00,,,0.00,,2013-08-21 03:12:00,
2013-08-20 22:23:00,74.0,67.0,30.08,SSE,154,0.0,0.0,79,0.00,,,0.00,,2013-08-21 03:23:00,
2013-08-20 22:55:00,73.0,67.0,30.09,SSE,154,0.0,1.0,81,0.00,,,0.00,,2013-08-21 03:55:00,
2013-08-20 23:14:00,73.0,68.0,30.09,SSE,154,0.0,1.0,83,0.00,,,0.00,,2013-08-21 04:14:00,
2013-08-20 23:24:00,73.0,68.0,30.09,SSE,154,0.0,1.0,83,0.00,,,0.00,,2013-08-21 04:24:00,
2013-08-20 23:54:00,72.0,67.0,30.09,SSE,154,0.0,0.0,84,0.00,,,0.00,,2013-08-21 04:54:00,